Date String (YYYY-MM-DD hh:mm:ss) UTC,Instrument flags,Ambient pressure (hPa),Sample flow (lpm),Bypass flow (lpm),Sample temperature (°C),Ambient temperature (°C),ASC tube jacket temperature (°C),LED temperature (°C),Box temperature (°C),Sample RH (%),Span deviation,Mass concentration (μg/m³),Mass concentration (μg/m³),Mass concentration (μg/m³)
DateTimeUTC,F1_M11,P_M11,Q1_M11,Q2_M11,T1_M11,T2_M11,T3_M11,T4_M11,T5_M11,U1_M11,ZSPAN_M11,X0_M11,X2_M11,X1_M11
2023-05-15 20:00:00,,0841.6,5.00,0.00,28.7,27.3,00.0,37.0,30.3,26.0,0000.0,0006.55,0004.95,0004.82
2023-05-15 20:01:00,,0841.6,5.00,0.00,28.7,27.3,00.0,37.0,30.4,26.1,0000.0,0006.56,0004.94,0004.81
2023-05-15 20:02:00,,0841.6,4.99,0.00,28.7,27.3,00.0,37.0,30.4,25.8,0000.0,0006.57,0004.95,0004.81
2023-05-15 20:03:00,,0841.6,5.00,0.00,28.8,27.4,00.0,37.0,30.4,25.7,0000.0,0006.50,0004.93,0004.80
2023-05-15 20:04:00,,0841.6,5.00,0.00,28.8,27.4,00.0,37.0,30.4,25.7,0000.0,0006.54,0004.93,0004.81
2023-05-15 20:05:00,,0841.5,5.00,0.00,28.8,27.4,00.0,37.1,30.4,25.9,0000.0,0006.65,0004.95,0004.82
2023-05-15 20:06:00,,0841.5,5.01,0.00,28.8,27.5,00.0,37.1,30.4,26.2,0000.0,0006.52,0004.93,0004.81
2023-05-15 20:07:00,,0841.5,5.01,0.00,28.8,27.5,00.0,37.1,30.5,26.2,0000.0,0006.47,0004.90,0004.78
2023-05-15 20:08:00,,0841.5,5.00,0.00,28.8,27.4,00.0,37.1,30.5,26.0,0000.0,0006.27,0004.85,0004.75
2023-05-15 20:09:00,,0841.5,4.99,0.00,28.8,27.4,00.0,37.1,30.4,25.6,0000.0,0006.12,0004.82,0004.74
2023-05-15 20:10:00,,0841.5,5.00,0.00,28.8,27.4,00.0,37.1,30.4,25.5,0000.0,0006.04,0004.80,0004.73
2023-05-15 20:11:00,,0841.5,5.00,0.00,28.8,27.3,00.0,37.1,30.4,25.6,0000.0,0006.02,0004.79,0004.73
2023-05-15 20:12:00,,0841.5,5.00,0.00,28.8,27.3,00.0,37.1,30.5,25.6,0000.0,0006.05,0004.80,0004.73
2023-05-15 20:13:00,,0841.4,5.00,0.00,28.8,27.3,00.0,37.1,30.5,25.7,0000.0,0006.11,0004.81,0004.73
2023-05-15 20:14:00,,0841.5,4.99,0.00,28.8,27.3,00.0,37.1,30.4,25.7,0000.0,0006.14,0004.82,0004.73
2023-05-15 20:15:00,,0841.4,4.99,0.00,28.8,27.3,00.0,37.1,30.5,25.7,0000.0,0006.10,0004.81,0004.73
2023-05-15 20:16:00,,0841.4,5.00,0.00,28.8,27.3,00.0,37.2,30.5,25.8,0000.0,0006.00,0004.80,0004.72
2023-05-15 20:17:00,,0841.4,5.00,0.00,28.8,27.3,00.0,37.2,30.5,26.0,0000.0,0006.05,0004.81,0004.72
2023-05-15 20:18:00,,0841.5,5.00,0.00,28.9,27.4,00.0,37.2,30.5,26.2,0000.0,0006.03,0004.80,0004.72
2023-05-15 20:19:00,,0841.5,5.00,0.00,28.9,27.3,00.0,37.2,30.5,26.4,0000.0,0006.04,0004.80,0004.72
2023-05-15 20:20:00,,0841.5,5.00,0.00,28.8,27.3,00.0,37.2,30.5,26.2,0000.0,0006.03,0004.80,0004.71
2023-05-15 20:21:00,,0841.5,4.99,0.00,28.9,27.3,00.0,37.2,30.5,25.9,0000.0,0006.18,0004.81,0004.72
2023-05-15 20:22:00,,0841.5,5.00,0.00,28.9,27.3,00.0,37.2,30.5,25.8,0000.0,0006.19,0004.80,0004.71
2023-05-15 20:23:00,,0841.5,5.00,0.00,28.9,27.4,00.0,37.2,30.5,25.8,0000.0,0006.17,0004.79,0004.70
2023-05-15 20:24:00,,0841.5,5.00,0.00,28.9,27.4,00.0,37.2,30.5,25.9,0000.0,0006.15,0004.77,0004.69
2023-05-15 20:25:00,,0841.5,4.99,0.00,28.9,27.4,00.0,37.2,30.5,26.0,0000.0,0006.08,0004.74,0004.65
2023-05-15 20:26:00,,0841.5,5.00,0.00,28.9,27.4,00.0,37.2,30.5,26.0,0000.0,0006.10,0004.74,0004.64
2023-05-15 20:27:00,,0841.5,5.00,0.00,28.9,27.4,00.0,37.2,30.5,25.9,0000.0,0006.12,0004.74,0004.63
2023-05-15 20:28:00,,0841.4,5.00,0.00,28.9,27.4,00.0,37.2,30.5,25.8,0000.0,0006.27,0004.74,0004.62
2023-05-15 20:29:00,,0841.5,5.00,0.00,28.9,27.4,00.0,37.2,30.5,26.0,0000.0,0006.28,0004.74,0004.62
2023-05-15 20:30:00,,0841.5,4.99,0.00,28.9,27.4,00.0,37.2,30.5,25.7,0000.0,0006.29,0004.75,0004.63
2023-05-15 20:31:00,,0841.5,4.99,0.00,28.9,27.3,00.0,37.2,30.5,25.6,0000.0,0006.31,0004.76,0004.64
2023-05-15 20:32:00,,0841.5,5.00,0.00,28.9,27.3,00.0,37.2,30.5,25.5,0000.0,0006.21,0004.74,0004.62
2023-05-15 20:33:00,,0841.4,5.01,0.00,28.9,27.3,00.0,37.2,30.5,25.7,0000.0,0006.18,0004.73,0004.61
2023-05-15 20:34:00,,0841.4,5.00,0.00,28.9,27.3,00.0,37.2,30.5,25.8,0000.0,0006.19,0004.72,0004.59
2023-05-15 20:35:00,,0841.4,5.00,0.00,28.9,27.3,00.0,37.2,30.5,25.7,0000.0,0006.11,0004.70,0004.58
2023-05-15 20:36:00,,0841.4,4.98,0.00,28.9,27.3,00.0,37.2,30.5,25.8,0000.0,0006.12,0004.70,0004.58
2023-05-15 20:37:00,,0841.4,5.00,0.00,28.9,27.3,00.0,37.3,30.5,25.7,0000.0,0006.10,0004.69,0004.58
2023-05-15 20:38:00,,0841.4,5.01,0.00,28.9,27.3,00.0,37.3,30.5,25.7,0000.0,0006.05,0004.67,0004.57
2023-05-15 20:39:00,,0841.4,5.01,0.00,28.9,27.3,00.0,37.3,30.5,25.6,0000.0,0005.95,0004.65,0004.56
2023-05-15 20:40:00,,0841.4,5.01,0.00,28.9,27.3,00.0,37.3,30.5,25.5,0000.0,0005.84,0004.64,0004.55
2023-05-15 20:41:00,,0841.4,5.00,0.00,28.9,27.3,00.0,37.3,30.5,25.7,0000.0,0005.85,0004.64,0004.54
2023-05-15 20:42:00,,0841.4,5.00,0.00,28.9,27.3,00.0,37.3,30.5,25.7,0000.0,0005.84,0004.62,0004.52
2023-05-15 20:43:00,,0841.4,5.01,0.00,28.9,27.3,00.0,37.3,30.5,25.6,0000.0,0005.79,0004.61,0004.51
2023-05-15 20:44:00,,0841.3,5.01,0.00,28.9,27.3,00.0,37.3,30.5,25.4,0000.0,0005.76,0004.61,0004.52
2023-05-15 20:45:00,,0841.3,5.00,0.00,28.9,27.3,00.0,37.3,30.5,25.6,0000.0,0005.76,0004.63,0004.54
2023-05-15 20:46:00,,0841.3,4.98,0.00,28.9,27.3,00.0,37.3,30.5,25.6,0000.0,0005.88,0004.66,0004.55
2023-05-15 20:47:00,,0841.3,5.00,0.00,28.9,27.3,00.0,37.3,30.5,25.6,0000.0,0005.91,0004.67,0004.56
2023-05-15 20:48:00,,0841.2,5.00,0.00,28.9,27.3,00.0,37.3,30.5,25.6,0000.0,0006.46,0004.66,0004.55
2023-05-15 20:49:00,,0841.2,5.01,0.00,28.9,27.4,00.0,37.3,30.5,25.5,0000.0,0006.58,0004.66,0004.56
2023-05-15 20:50:00,,0841.2,5.00,0.00,28.9,27.4,00.0,37.3,30.6,25.9,0000.0,0006.61,0004.66,0004.56
2023-05-15 20:51:00,,0841.2,5.00,0.00,28.9,27.4,00.0,37.3,30.6,26.1,0000.0,0006.65,0004.67,0004.56
2023-05-15 20:52:00,,0841.2,5.00,0.00,28.9,27.4,00.0,37.3,30.6,26.1,0000.0,0006.64,0004.66,0004.54
2023-05-15 20:53:00,,0841.1,4.99,0.00,29.0,27.5,00.0,37.3,30.6,25.9,0000.0,0006.70,0004.66,0004.54
2023-05-15 20:54:00,,0841.1,5.02,0.00,29.0,27.5,00.0,37.3,30.6,26.0,0000.0,0006.82,0004.69,0004.54
2023-05-15 20:55:00,,0841.1,5.00,0.00,29.0,27.5,00.0,37.3,30.6,26.3,0000.0,0006.85,0004.68,0004.52
2023-05-15 20:56:00,,0841.1,4.99,0.00,29.0,27.5,00.0,37.3,30.6,25.9,0000.0,0006.89,0004.67,0004.49
2023-05-15 20:57:00,,0841.1,5.01,0.00,29.0,27.5,00.0,37.3,30.6,25.7,0000.0,0006.82,0004.64,0004.48
2023-05-15 20:58:00,,0841.1,5.01,0.00,29.0,27.5,00.0,37.3,30.6,25.9,0000.0,0006.74,0004.61,0004.45
2023-05-15 20:59:00,,0841.1,5.00,0.00,29.0,27.5,00.0,37.3,30.6,25.2,0000.0,0006.33,0004.62,0004.46
